Meath Environmental Platform

Observations for Trim Patrick St

Time AQI Temp °C Hum % Pres Pa CO μg/m³ H₂S μg/m³ NO μg/m³ NO₂ μg/m³ O₃ μg/m³ SO₂ μg/m³ PM1 μg/m³ PM2.5 μg/m³ PM10 μg/m³
Saturday 8 August 2026
08:51 1 21.2 59 76,344 0.11 0 3.89 11.6 23.1 2.81 2.86 7.32 8.05
08:47 1 21 60 77,412 0.11 0 3.36 11.45 21.67 2.79 2.86 7.28 8.01
08:46 1 20.9 60 77,738 0.1 0 3.39 10.82 25.43 2.82 2.86 7.99 8.79
08:45 1 20.9 60 78,104 0.1 0 3.4 11.15 19.1 2.69 4.57 8.74 9.62
08:44 1 20.8 61 78,490 0.1 0 3.33 11.18 23.73 2.53 2.86 8.71 9.58
08:43 1 20.8 61 78,897 0.1 0 3.17 11.71 21.44 2.7 3.71 7.21 7.93
08:42 1 20.7 61 79,288 0.1 0 3.26 12.16 23.61 3.28 2.86 7.92 8.71
08:41 1 20.6 62 79,670 0.12 0 3.2 12.53 25.01 2.6 3.71 7.91 8.7
08:40 1 20.5 62 79,900 0.13 0 3.21 12.64 23.56 2.86 3.71 7.89 8.68
08:39 1 20.4 62 80,183 0.12 0 3.14 12.14 19.97 2.21 3.71 8.62 9.49
08:38 1 20.4 62 80,404 0.11 0 3.23 11.88 25.42 2.97 2.86 7.14 7.85
08:37 1 20.3 62 80,626 0.13 0 3.17 12.43 24.23 2.59 2.86 7.14 7.85
08:36 1 20.2 62 80,693 0.13 0 3 12.21 21.13 2.48 3.71 7.88 8.67
08:35 1 20.2 62 80,799 0.11 0 3.04 10.79 25.1 2.52 2.86 7.13 7.85
08:34 1 20.1 62 80,849 0.12 0 3.06 10.57 24.45 2.55 3.71 8.61 9.47
08:33 1 20.1 62 80,909 0.1 0 3.04 10.4 24.51 2.35 3.71 7.87 8.66
08:32 1 20.1 62 80,980 0.1 0 3.04 10.57 22.28 1.93 2.86 7.14 7.85
08:31 1 20 62 81,136 0.14 0 3.17 11.77 21.05 1.92 3.71 8.6 9.46
08:30 1 20 62 81,354 0.13 0 2.98 11.21 23.94 1.85 4.57 8.59 9.45
08:29 1 20 62 81,618 0.12 0 3.06 12.08 22.84 1.71 3.71 7.84 8.63